EW3770 Weather Reports


Display with metric or nautical units.
time (UTC)temp
F
wind
direction
speed
MPH
gust
MPH
rain 1hr
in
rain 24hr
in
rain mn
in
humidity
%
barometer
mb
20260906171803 83 151 3.0 9.0 0.00 0.00 0.00 30 1027.4
20260906170903 82 146 4.0 16.0 0.00 0.00 0.00 29 1027.4
20260906170024 82 159 4.0 10.0 0.00 0.00 0.00 29 1027.4
20260906165403 82 147 3.0 11.0 0.00 0.00 0.00 29 1027.4
20260906164524 82 149 2.0 11.0 0.00 0.00 0.00 31 1027.4
20260906163603 81 166 1.0 7.0 0.00 0.00 0.00 33 1027.4
20260906162703 80 168 2.0 6.0 0.00 0.00 0.00 32 1027.4
20260906161803 80 169 2.0 6.0 0.00 0.00 0.00 34 1027.4
20260906160903 79 169 2.0 6.0 0.00 0.00 0.00 34 1027.4
20260906160003 79 163 2.0 6.0 0.00 0.00 0.00 35 1027.4
20260906155403 78 156 2.0 6.0 0.00 0.00 0.00 33 1027.4
20260906154503 78 164 1.0 5.0 0.00 0.00 0.00 37 1027.4
20260906153603 77 182 1.0 7.0 0.00 0.00 0.00 35 1027.4
20260906152703 77 199 1.0 7.0 0.00 0.00 0.00 35 1027.4
20260906151824 76 186 1.0 5.0 0.00 0.00 0.00 37 1027.4
20260906150903 76 150 1.0 4.0 0.00 0.00 0.00 37 1027.4
20260906150004 75 130 1.0 4.0 0.00 0.00 0.00 35 1027.4
20260906145403 74 132 1.0 5.0 0.00 0.00 0.00 36 1027.4
20260906144503 74 143 1.0 5.0 0.00 0.00 0.00 38 1027.4
20260906143603 73 173 1.0 5.0 0.00 0.00 0.00 40 1027.4
20260906142724 72 210 1.0 5.0 0.00 0.00 0.00 42 1027.4
20260906141803 72 207 1.0 3.0 0.00 0.00 0.00 44 1027.4
20260906140903 70 196 1.0 3.0 0.00 0.00 0.00 44 1027.4
20260906140003 69 190 1.0 7.0 0.00 0.00 0.00 44 1027.4
20260906135403 68 207 1.0 6.0 0.00 0.00 0.00 45 1027.4
20260906134503 67 215 2.0 5.0 0.00 0.00 0.00 45 1027.4
20260906133603 67 170 1.0 7.0 0.00 0.00 0.00 43 1027.4
20260906132703 66 183 1.0 4.0 0.00 0.00 0.00 42 1027.4
20260906131803 66 185 2.0 6.0 0.00 0.00 0.00 43 1027.4
20260906130903 66 186 1.0 4.0 0.00 0.00 0.00 43 1027.4
20260906130024 66 185 1.0 4.0 0.00 0.00 0.00 42 1027.4
20260906125403 66 191 1.0 3.0 0.00 0.00 0.00 41 1027.4
20260906124503 66 210 1.0 4.0 0.00 0.00 0.00 41 1027.4
20260906123603 67 187 1.0 7.0 0.00 0.00 0.00 40 1027.4
20260906122703 67 200 1.0 4.0 0.00 0.00 0.00 40 1027.4
20260906121803 67 200 2.0 4.0 0.00 0.00 0.00 39 1027.4
20260906120903 67 198 2.0 5.0 0.00 0.00 0.00 39 1027.4
20260906120003 67 199 2.0 5.0 0.00 0.00 0.00 38 1027.4
20260906115403 67 200 1.0 5.0 0.00 0.00 0.00 38 1027.4
20260906114503 67 198 1.0 3.0 0.00 0.00 0.00 37 1027.4
20260906113624 67 198 1.0 4.0 0.00 0.00 0.00 38 1027.4
20260906112703 67 198 1.0 3.0 0.00 0.00 0.00 37 1027.4
20260906111803 67 198 1.0 4.0 0.00 0.00 0.00 37 1027.4
20260906110903 67 196 1.0 5.0 0.00 0.00 0.00 37 1027.4
20260906110003 67 194 1.0 4.0 0.00 0.00 0.00 36 1027.4
20260906105403 67 194 1.0 4.0 0.00 0.00 0.00 37 1027.4
20260906104503 67 198 2.0 7.0 0.00 0.00 0.00 37 1027.4
20260906103603 67 212 2.0 6.0 0.00 0.00 0.00 37 1027.4
20260906102724 67 210 2.0 6.0 0.00 0.00 0.00 37 1027.4
20260906101803 67 201 2.0 7.0 0.00 0.00 0.00 37 1027.4
20260906100903 67 215 2.0 4.0 0.00 0.00 0.00 37 1027.4
20260906100003 67 216 2.0 5.0 0.00 0.00 0.00 37 1027.4
20260906095403 67 218 2.0 5.0 0.00 0.00 0.00 37 1027.4
20260906094524 66 214 2.0 7.0 0.00 0.00 0.00 37 1027.4
20260906093603 66 211 1.0 4.0 0.00 0.00 0.00 37 1027.4
20260906092703 66 206 1.0 5.0 0.00 0.00 0.00 38 1027.4
20260906091824 67 137 0.0 3.0 0.00 0.00 0.00 38 1027.4
20260906090903 67 137 1.0 3.0 0.00 0.00 0.00 38 1027.4
20260906090003 67 137 0.0 1.0 0.00 0.00 0.00 39 1027.4
20260906085424 67 137 0.0 1.0 0.00 0.00 0.00 38 1027.4
20260906084503 68 137 0.0 1.0 0.00 0.00 0.00 38 1027.4
20260906083603 68 137 0.0 2.0 0.00 0.00 0.00 37 1027.4
20260906082703 69 137 0.0 2.0 0.00 0.00 0.00 36 1027.4
20260906081803 70 140 1.0 5.0 0.00 0.00 0.00 36 1027.4
20260906080903 70 129 1.0 5.0 0.00 0.00 0.00 35 1027.4
20260906080003 70 146 1.0 7.0 0.00 0.00 0.00 34 1027.4
20260906075403 70 134 0.0 3.0 0.00 0.00 0.00 33 1027.4
20260906074503 71 117 1.0 7.0 0.00 0.00 0.00 31 1027.4
20260906073603 71 144 1.0 7.0 0.00 0.00 0.00 31 1027.4
20260906072703 71 128 1.0 10.0 0.00 0.00 0.00 31 1027.4
20260906071803 69 129 2.0 10.0 0.00 0.00 0.00 31 1027.4
20260906070924 69 128 0.0 1.0 0.00 0.00 0.00 36 1027.4
20260906070003 69 129 0.0 4.0 0.00 0.00 0.00 35 1027.4
20260906065403 69 130 0.0 2.0 0.00 0.00 0.00 36 1027.4
20260906064503 69 130 0.0 2.0 0.00 0.00 0.00 35 1027.4
20260906063603 69 130 0.0 1.0 0.00 0.00 0.00 35 1027.4
20260906062703 69 126 0.0 5.0 0.00 0.00 0.00 34 1027.4
20260906061824 69 123 0.0 1.0 0.00 0.00 0.00 35 1027.4
20260906060903 70 123 0.0 1.0 0.00 0.00 0.00 35 1027.4
20260906060003 70 123 0.0 1.0 0.00 0.00 0.00 34 1027.4
20260906055403 70 123 0.0 4.0 0.00 0.00 0.00 34 1027.4
20260906054503 70 124 0.0 2.0 0.00 0.00 0.00 34 1027.4
20260906053603 70 125 0.0 2.0 0.00 0.00 0.00 33 1027.4
20260906052703 70 125 0.0 1.0 0.00 0.00 0.00 32 1027.4
20260906051803 71 125 0.0 3.0 0.00 0.00 0.00 31 1027.4
20260906050903 71 125 0.0 1.0 0.00 0.00 0.00 30 1027.4
20260906050003 72 125 0.0 3.0 0.00 0.00 0.00 28 1027.4
20260906045403 72 125 0.0 3.0 0.00 0.00 0.00 28 1027.4
20260906044503 73 0 0.0 0.0 0.00 0.00 0.00 27 1027.4
20260906043603 73 125 0.0 2.0 0.00 0.00 0.00 26 1027.4
20260906042703 73 146 1.0 9.0 0.00 0.00 0.00 25 1027.4
20260906041803 73 146 0.0 3.0 0.00 0.00 0.00 25 1027.4
20260906040903 73 146 0.0 2.0 0.00 0.00 0.00 24 1027.4
20260906040004 74 146 0.0 2.0 0.00 0.00 0.00 24 1027.4
20260906035403 74 146 0.0 1.0 0.00 0.00 0.00 24 1027.4
20260906034503 75 146 0.0 2.0 0.00 0.00 0.00 24 1027.4
20260906033603 76 146 0.0 1.0 0.00 0.00 0.00 23 1027.4
20260906032703 77 152 0.0 4.0 0.00 0.00 0.00 22 1027.4
20260906031803 78 158 1.0 3.0 0.00 0.00 0.00 21 1027.4
20260906030903 78 161 1.0 6.0 0.00 0.00 0.00 19 1027.4
20260906030003 79 168 0.0 5.0 0.00 0.00 0.00 19 1027.4
20260906025403 79 196 0.0 4.0 0.00 0.00 0.00 18 1027.4
20260906024503 80 168 1.0 4.0 0.00 0.00 0.00 18 1027.4
20260906023603 80 189 1.0 6.0 0.00 0.00 0.00 18 1027.4
20260906022724 81 190 2.0 10.0 0.00 0.00 0.00 18 1027.4
20260906021803 81 203 3.0 10.0 0.00 0.00 0.00 19 1027.4
20260906020903 82 200 2.0 6.0 0.00 0.00 0.00 18 1027.4
20260906020024 82 194 3.0 12.0 0.00 0.00 0.00 18 1027.4
20260906015403 82 193 3.0 10.0 0.00 0.00 0.00 17 1027.4
20260906014503 83 191 2.0 10.0 0.00 0.00 0.00 17 1027.4
20260906013603 83 190 2.0 10.0 0.00 0.00 0.00 17 1027.4
20260906012724 84 195 3.0 14.0 0.00 0.00 0.00 17 1027.4
20260906011803 84 181 3.0 14.0 0.00 0.00 0.00 16 1027.4
20260906010903 84 170 1.0 6.0 0.00 0.00 0.00 17 1027.4
20260906010003 85 202 1.0 6.0 0.00 0.00 0.00 18 1027.4
20260906005403 85 196 1.0 7.0 0.00 0.00 0.00 18 1027.4
20260906004503 86 187 2.0 14.0 0.00 0.00 0.00 18 1027.4
20260906003603 86 170 1.0 9.0 0.00 0.00 0.00 18 1027.4
20260906002703 86 172 2.0 9.0 0.00 0.00 0.00 18 1027.4
20260906001824 87 167 1.0 5.0 0.00 0.00 0.00 18 1027.4
20260906000924 87 134 1.0 9.0 0.00 0.00 0.00 19 1027.4
20260906000003 88 136 1.0 9.0 0.00 0.00 0.00 16 1027.4
20260905235403 88 118 1.0 7.0 0.00 0.00 0.00 16 1027.4
20260905234503 88 127 2.0 8.0 0.00 0.00 0.00 15 1027.4
20260905233603 88 127 3.0 13.0 0.00 0.00 0.00 16 1027.4
20260905232703 88 156 2.0 8.0 0.00 0.00 0.00 16 1027.4
20260905231824 88 183 1.0 6.0 0.00 0.00 0.00 17 1027.4
20260905230903 88 136 3.0 12.0 0.00 0.00 0.00 15 1027.4
20260905230003 89 176 2.0 13.0 0.00 0.00 0.00 16 1027.4
20260905225403 89 162 2.0 11.0 0.00 0.00 0.00 15 1027.4
20260905224503 89 190 4.0 16.0 0.00 0.00 0.00 15 1027.4
20260905223603 89 185 4.0 12.0 0.00 0.00 0.00 14 1027.4
20260905222703 89 185 4.0 14.0 0.00 0.00 0.00 16 1027.4
20260905221803 88 176 3.0 14.0 0.00 0.00 0.00 15 1027.4
20260905220903 88 180 2.0 13.0 0.00 0.00 0.00 14 1027.4
20260905220003 87 155 4.0 14.0 0.00 0.00 0.00 15 1027.4
20260905215403 87 119 7.0 20.0 0.00 0.00 0.00 18 1027.4
20260905214503 87 123 7.0 18.0 0.00 0.00 0.00 16 1027.4
20260905213603 87 130 3.0 15.0 0.00 0.00 0.00 18 1027.4
20260905212703 86 127 6.0 16.0 0.00 0.00 0.00 18 1027.4
20260905211824 86 115 8.0 16.0 0.00 0.00 0.00 18 1027.4
20260905210903 86 126 7.0 18.0 0.00 0.00 0.00 18 1027.4
20260905210003 86 123 8.0 17.0 0.00 0.00 0.00 18 1027.4
20260905205403 86 128 4.0 16.0 0.00 0.00 0.00 19 1027.4
20260905204503 85 127 6.0 20.0 0.00 0.00 0.00 19 1027.4
20260905203603 86 138 5.0 23.0 0.00 0.00 0.00 19 1027.4
20260905202703 85 142 4.0 23.0 0.00 0.00 0.00 19 1027.4
20260905201803 85 128 4.0 17.0 0.00 0.00 0.00 22 1027.4
20260905200903 85 123 6.0 17.0 0.00 0.00 0.00 19 1027.4
20260905200003 84 125 7.0 19.0 0.00 0.00 0.00 19 1027.4
20260905195403 84 125 7.0 21.0 0.00 0.00 0.00 21 1027.4
20260905194503 84 126 6.0 17.0 0.00 0.00 0.00 20 1027.4
20260905193603 83 130 6.0 16.0 0.00 0.00 0.00 20 1027.4
20260905192703 83 124 6.0 16.0 0.00 0.00 0.00 21 1027.4
20260905191803 83 128 6.0 20.0 0.00 0.00 0.00 21 1027.4
20260905190903 83 128 8.0 17.0 0.00 0.00 0.00 20 1027.4
20260905190003 83 135 6.0 17.0 0.00 0.00 0.00 21 1027.4
20260905185403 83 145 5.0 17.0 0.00 0.00 0.00 21 1027.4
20260905184503 83 140 3.0 15.0 0.00 0.00 0.00 20 1027.4
20260905183603 83 151 4.0 21.0 0.00 0.00 0.00 23 1027.4
20260905182704 83 140 5.0 17.0 0.00 0.00 0.00 23 1027.4
20260905181803 83 142 3.0 15.0 0.00 0.00 0.00 24 1027.4
20260905180903 83 133 4.0 13.0 0.00 0.00 0.00 24 1027.4
20260905180003 83 138 4.0 14.0 0.00 0.00 0.00 23 1027.4
20260905175404 82 144 3.0 14.0 0.00 0.00 0.00 25 1027.4
20260905174503 82 139 4.0 14.0 0.00 0.00 0.00 22 1027.4
20260905173603 82 150 2.0 11.0 0.00 0.00 0.00 23 1027.4
20260905172703 82 145 4.0 14.0 0.00 0.00 0.00 22 1027.4